Location: Burla
(50.9568°N, 10.4983°E)
Time: 14:29:51
(UTC+00:00)

Cosmos 2218 Rocket - Pass Details

Date: 18 January 2026
Orbit: 955 x 1005 km, 82.9° (Epoch: 9 February)

Event Time Altitude Azimuth Distance (km) Brightness Sun altitude
Rises 06:01:24 0° 191° (S) 3,675 7.1 -10.8°
Reaches altitude 10° 06:03:53 10° 192° (SSW) 2,738 6.5 -10.4°
Maximum altitude 06:10:11 82° 279° (W) 1,012 4.0 -9.5°
Drops below altitude 10° 06:16:37 10° 9° (N) 2,785 6.3 -8.6°
Sets 06:19:11 0° 10° (N) 3,742 6.9 -8.2°
